Time,TemperatureF,DewpointF,PressureIn,WindDirection,WindDirectionDegrees,WindSpeedMPH,WindSpeedGustMPH,Humidity,HourlyPrecipIn,Conditions,Clouds,dailyrainin,SoftwareType,DateUTC
2013-04-18 00:11:00,42.1,41.6,29.70,NNW,337,10.4,-999.0,98,-99.99,,,0.00,Acu-Link.com,2013-04-18 05:11:00,
2013-04-18 00:26:00,41.9,41.4,29.71,West,270,8.9,-999.0,98,-99.99,,,0.00,Acu-Link.com,2013-04-18 05:26:00,
2013-04-18 00:41:00,41.7,41.2,29.69,NW,315,7.8,-999.0,98,-99.99,,,0.00,Acu-Link.com,2013-04-18 05:41:00,
2013-04-18 00:56:00,41.5,41.0,29.70,North,0,7.8,-999.0,98,-99.99,,,0.00,Acu-Link.com,2013-04-18 05:56:00,
2013-04-18 01:11:00,41.5,41.0,29.72,ESE,112,3.7,-999.0,98,-99.99,,,0.00,Acu-Link.com,2013-04-18 06:11:00,
2013-04-18 01:27:00,41.0,40.5,29.74,North,0,0.0,-999.0,98,-99.99,,,0.02,Acu-Link.com,2013-04-18 06:27:00,
2013-04-18 01:42:00,41.4,40.9,29.74,NNE,22,6.8,-999.0,98,-99.99,,,0.16,Acu-Link.com,2013-04-18 06:42:00,
2013-04-18 01:57:00,41.0,40.5,29.69,NNW,337,6.3,-999.0,98,-99.99,,,0.22,Acu-Link.com,2013-04-18 06:57:00,
2013-04-18 02:12:00,41.0,40.5,29.70,North,0,6.8,-999.0,98,-99.99,,,0.24,Acu-Link.com,2013-04-18 07:12:00,
2013-04-18 02:27:00,40.8,40.3,29.70,NNW,337,6.3,-999.0,98,-99.99,,,0.24,Acu-Link.com,2013-04-18 07:27:00,
2013-04-18 02:42:00,40.6,40.1,29.67,NNW,337,8.3,-999.0,98,-99.99,,,0.24,Acu-Link.com,2013-04-18 07:42:00,
2013-04-18 02:57:00,40.3,39.8,29.65,North,0,7.3,-999.0,98,-99.99,,,0.25,Acu-Link.com,2013-04-18 07:57:00,
2013-04-18 03:34:00,40.3,39.8,29.67,North,0,5.8,-999.0,98,-99.99,,,0.25,Acu-Link.com,2013-04-18 08:34:00,
2013-04-18 03:54:00,40.3,39.8,29.65,NNW,337,8.9,-999.0,98,-99.99,,,0.26,Acu-Link.com,2013-04-18 08:54:00,
2013-04-18 04:09:00,39.9,39.4,29.68,NNW,337,9.9,-999.0,98,-99.99,,,0.47,Acu-Link.com,2013-04-18 09:09:00,
2013-04-18 04:24:00,39.7,39.2,29.67,North,0,10.4,-999.0,98,-99.99,,,0.60,Acu-Link.com,2013-04-18 09:24:00,
2013-04-18 04:39:00,39.4,38.9,29.67,NNW,337,13.0,-999.0,98,-99.99,,,0.63,Acu-Link.com,2013-04-18 09:39:00,
2013-04-18 04:54:00,39.2,38.7,29.66,North,0,10.4,-999.0,98,-99.99,,,0.65,Acu-Link.com,2013-04-18 09:54:00,
2013-04-18 05:09:00,39.0,38.5,29.67,NNW,337,10.9,-999.0,98,-99.99,,,0.66,Acu-Link.com,2013-04-18 10:09:00,
2013-04-18 05:24:00,38.8,38.3,29.66,NNW,337,7.3,-999.0,98,-99.99,,,0.66,Acu-Link.com,2013-04-18 10:24:00,
2013-04-18 05:39:00,38.7,38.2,29.65,NNW,337,5.3,-999.0,98,-99.99,,,0.67,Acu-Link.com,2013-04-18 10:39:00,
2013-04-18 05:55:00,38.7,38.2,29.62,East,90,7.8,-999.0,98,-99.99,,,0.67,Acu-Link.com,2013-04-18 10:55:00,
2013-04-18 06:10:00,38.3,37.8,29.61,NNW,337,11.4,-999.0,98,-99.99,,,0.72,Acu-Link.com,2013-04-18 11:10:00,
2013-04-18 06:25:00,37.9,37.4,29.60,NNE,22,8.9,-999.0,98,-99.99,,,0.73,Acu-Link.com,2013-04-18 11:25:00,
2013-04-18 06:40:00,38.3,37.8,29.61,North,0,7.3,-999.0,98,-99.99,,,0.73,Acu-Link.com,2013-04-18 11:40:00,
2013-04-18 06:55:00,38.1,37.6,29.61,NNW,337,4.2,-999.0,98,-99.99,,,0.73,Acu-Link.com,2013-04-18 11:55:00,
2013-04-18 07:10:00,38.1,37.6,29.60,North,0,7.8,-999.0,98,-99.99,,,0.73,Acu-Link.com,2013-04-18 12:10:00,
2013-04-18 07:25:00,38.1,37.6,29.58,North,0,9.4,-999.0,98,-99.99,,,0.73,Acu-Link.com,2013-04-18 12:25:00,
2013-04-18 07:40:00,38.1,37.6,29.59,NNE,22,5.3,-999.0,98,-99.99,,,0.73,Acu-Link.com,2013-04-18 12:40:00,
2013-04-18 07:55:00,38.1,37.6,29.61,NNW,337,4.7,-999.0,98,-99.99,,,0.73,Acu-Link.com,2013-04-18 12:55:00,
2013-04-18 08:11:00,38.3,37.8,29.61,NNW,337,3.7,-999.0,98,-99.99,,,0.73,Acu-Link.com,2013-04-18 13:11:00,
2013-04-18 08:26:00,38.5,38.0,29.60,North,0,6.8,-999.0,98,-99.99,,,0.74,Acu-Link.com,2013-04-18 13:26:00,
2013-04-18 09:11:00,38.1,37.6,29.57,NNW,337,7.3,-999.0,98,-99.99,,,0.76,Acu-Link.com,2013-04-18 14:11:00,
2013-04-18 09:26:00,38.3,37.8,29.56,NW,315,5.3,-999.0,98,-99.99,,,0.77,Acu-Link.com,2013-04-18 14:26:00,
2013-04-18 09:41:00,38.5,38.0,29.55,North,0,9.4,-999.0,98,-99.99,,,0.77,Acu-Link.com,2013-04-18 14:41:00,
2013-04-18 09:56:00,38.5,38.0,29.55,NW,315,6.8,-999.0,98,-99.99,,,0.78,Acu-Link.com,2013-04-18 14:56:00,
2013-04-18 10:11:00,38.7,38.2,29.57,NNW,337,7.8,-999.0,98,-99.99,,,0.79,Acu-Link.com,2013-04-18 15:11:00,
2013-04-18 10:27:00,38.5,38.0,29.56,WNW,292,10.9,-999.0,98,-99.99,,,0.81,Acu-Link.com,2013-04-18 15:27:00,
2013-04-18 10:42:00,38.7,38.2,29.57,WSW,247,10.4,-999.0,98,-99.99,,,0.85,Acu-Link.com,2013-04-18 15:42:00,
2013-04-18 10:57:00,38.5,38.0,29.58,West,270,9.4,-999.0,98,-99.99,,,0.86,Acu-Link.com,2013-04-18 15:57:00,
2013-04-18 11:12:00,38.7,38.2,29.57,NNW,337,8.9,-999.0,98,-99.99,,,0.87,Acu-Link.com,2013-04-18 16:12:00,
2013-04-18 11:27:00,38.8,38.3,29.58,WNW,292,5.8,-999.0,98,-99.99,,,0.88,Acu-Link.com,2013-04-18 16:27:00,
2013-04-18 11:42:00,39.0,38.5,29.57,West,270,9.4,-999.0,98,-99.99,,,0.89,Acu-Link.com,2013-04-18 16:42:00,
2013-04-18 11:57:00,39.2,38.7,29.56,West,270,8.9,-999.0,98,-99.99,,,0.89,Acu-Link.com,2013-04-18 16:57:00,
2013-04-18 12:12:00,38.1,37.6,29.58,West,270,10.9,-999.0,98,-99.99,,,0.90,Acu-Link.com,2013-04-18 17:12:00,
2013-04-18 12:28:00,37.9,37.4,29.56,NNW,337,9.4,-999.0,98,-99.99,,,0.90,Acu-Link.com,2013-04-18 17:28:00,
2013-04-18 12:43:00,37.4,36.9,29.57,North,0,16.1,-999.0,98,-99.99,,,0.92,Acu-Link.com,2013-04-18 17:43:00,
2013-04-18 12:58:00,37.4,36.9,29.58,West,270,7.3,-999.0,98,-99.99,,,0.92,Acu-Link.com,2013-04-18 17:58:00,
2013-04-18 13:13:00,38.3,37.8,29.56,NNW,337,10.9,-999.0,98,-99.99,,,0.92,Acu-Link.com,2013-04-18 18:13:00,
2013-04-18 13:28:00,37.8,37.3,29.57,West,270,10.4,-999.0,98,-99.99,,,0.92,Acu-Link.com,2013-04-18 18:28:00,
2013-04-18 13:43:00,37.8,37.3,29.58,West,270,9.4,-999.0,98,-99.99,,,0.92,Acu-Link.com,2013-04-18 18:43:00,
2013-04-18 13:59:00,37.6,37.1,29.58,West,270,11.9,-999.0,98,-99.99,,,0.92,Acu-Link.com,2013-04-18 18:59:00,
2013-04-18 14:14:00,38.3,37.8,29.58,North,0,11.9,-999.0,98,-99.99,,,0.92,Acu-Link.com,2013-04-18 19:14:00,
2013-04-18 14:29:00,39.0,38.5,29.59,NNW,337,7.3,-999.0,98,-99.99,,,0.92,Acu-Link.com,2013-04-18 19:29:00,
2013-04-18 14:44:00,36.7,36.2,29.59,West,270,12.5,-999.0,98,-99.99,,,0.92,Acu-Link.com,2013-04-18 19:44:00,
2013-04-18 14:59:00,37.2,36.7,29.59,NNW,337,10.9,-999.0,98,-99.99,,,0.93,Acu-Link.com,2013-04-18 19:59:00,
2013-04-18 15:14:00,37.6,37.1,29.59,WSW,247,10.9,-999.0,98,-99.99,,,0.93,Acu-Link.com,2013-04-18 20:14:00,
2013-04-18 15:29:00,38.1,37.6,29.58,West,270,10.4,-999.0,98,-99.99,,,0.93,Acu-Link.com,2013-04-18 20:29:00,
2013-04-18 15:44:00,37.8,37.3,29.59,West,270,16.1,-999.0,98,-99.99,,,0.93,Acu-Link.com,2013-04-18 20:44:00,
2013-04-18 15:59:00,37.6,37.1,29.59,WNW,292,10.9,-999.0,98,-99.99,,,0.93,Acu-Link.com,2013-04-18 20:59:00,
2013-04-18 16:15:00,37.0,36.5,29.60,WNW,292,8.9,-999.0,98,-99.99,,,0.93,Acu-Link.com,2013-04-18 21:15:00,
2013-04-18 16:30:00,36.5,36.0,29.61,WSW,247,11.9,-999.0,98,-99.99,,,0.93,Acu-Link.com,2013-04-18 21:30:00,
2013-04-18 16:45:00,36.1,35.6,29.61,North,0,9.9,-999.0,98,-99.99,,,0.93,Acu-Link.com,2013-04-18 21:45:00,
2013-04-18 17:00:00,35.6,35.1,29.62,WNW,292,12.5,-999.0,98,-99.99,,,0.93,Acu-Link.com,2013-04-18 22:00:00,
2013-04-18 17:15:00,35.8,35.3,29.63,West,270,18.1,-999.0,98,-99.99,,,0.93,Acu-Link.com,2013-04-18 22:15:00,
2013-04-18 17:30:00,35.4,34.9,29.64,West,270,13.5,-999.0,98,-99.99,,,0.93,Acu-Link.com,2013-04-18 22:30:00,
2013-04-18 17:45:00,35.6,35.1,29.64,WSW,247,11.4,-999.0,98,-99.99,,,0.93,Acu-Link.com,2013-04-18 22:45:00,
2013-04-18 18:00:00,35.8,35.3,29.65,West,270,16.1,-999.0,98,-99.99,,,0.93,Acu-Link.com,2013-04-18 23:00:00,
2013-04-18 18:15:00,35.8,35.3,29.65,West,270,13.5,-999.0,98,-99.99,,,0.93,Acu-Link.com,2013-04-18 23:15:00,
2013-04-18 18:31:00,36.0,35.5,29.65,WSW,247,14.5,-999.0,98,-99.99,,,0.93,Acu-Link.com,2013-04-18 23:31:00,
2013-04-18 18:46:00,36.0,35.5,29.66,West,270,18.6,-999.0,98,-99.99,,,0.93,Acu-Link.com,2013-04-18 23:46:00,
2013-04-18 19:01:00,35.8,35.3,29.67,NE,45,15.0,-999.0,98,-99.99,,,0.93,Acu-Link.com,2013-04-19 00:01:00,
2013-04-18 19:16:00,35.6,35.1,29.67,NNW,337,8.3,-999.0,98,-99.99,,,0.93,Acu-Link.com,2013-04-19 00:16:00,
2013-04-18 19:31:00,35.6,35.1,29.68,SW,225,18.1,-999.0,98,-99.99,,,0.93,Acu-Link.com,2013-04-19 00:31:00,
2013-04-18 19:46:00,35.4,34.9,29.68,West,270,11.9,-999.0,98,-99.99,,,0.93,Acu-Link.com,2013-04-19 00:46:00,
2013-04-18 20:01:00,35.6,35.1,29.69,NW,315,13.5,-999.0,98,-99.99,,,0.93,Acu-Link.com,2013-04-19 01:01:00,
2013-04-18 20:16:00,35.4,34.9,29.69,West,270,16.1,-999.0,98,-99.99,,,0.93,Acu-Link.com,2013-04-19 01:16:00,
2013-04-18 20:32:00,35.6,35.1,29.70,West,270,12.5,-999.0,98,-99.99,,,0.93,Acu-Link.com,2013-04-19 01:32:00,
2013-04-18 20:47:00,34.9,34.4,29.70,NW,315,8.9,-999.0,98,-99.99,,,0.93,Acu-Link.com,2013-04-19 01:47:00,
2013-04-18 21:02:00,35.1,34.6,29.71,West,270,11.9,-999.0,98,-99.99,,,0.93,Acu-Link.com,2013-04-19 02:02:00,
2013-04-18 21:17:00,34.9,34.4,29.72,North,0,13.0,-999.0,98,-99.99,,,0.93,Acu-Link.com,2013-04-19 02:17:00,
2013-04-18 21:32:00,34.7,34.2,29.73,West,270,13.5,-999.0,98,-99.99,,,0.93,Acu-Link.com,2013-04-19 02:32:00,
2013-04-18 21:47:00,34.7,34.2,29.73,WSW,247,18.1,-999.0,98,-99.99,,,0.93,Acu-Link.com,2013-04-19 02:47:00,
2013-04-18 22:02:00,34.5,34.0,29.73,West,270,14.0,-999.0,98,-99.99,,,0.93,Acu-Link.com,2013-04-19 03:02:00,
2013-04-18 22:17:00,34.9,34.4,29.72,WSW,247,11.9,-999.0,98,-99.99,,,0.93,Acu-Link.com,2013-04-19 03:17:00,
2013-04-18 22:32:00,34.9,34.4,29.72,West,270,15.5,-999.0,98,-99.99,,,0.93,Acu-Link.com,2013-04-19 03:32:00,
2013-04-18 22:48:00,34.2,33.7,29.72,WSW,247,12.5,-999.0,98,-99.99,,,0.93,Acu-Link.com,2013-04-19 03:48:00,
2013-04-18 23:03:00,34.0,33.5,29.71,WSW,247,12.5,-999.0,98,-99.99,,,0.93,Acu-Link.com,2013-04-19 04:03:00,
2013-04-18 23:18:00,33.8,33.3,29.71,West,270,9.9,-999.0,98,-99.99,,,0.93,Acu-Link.com,2013-04-19 04:18:00,
2013-04-18 23:33:00,33.6,33.1,29.71,West,270,13.5,-999.0,98,-99.99,,,0.93,Acu-Link.com,2013-04-19 04:33:00,
2013-04-18 23:48:00,33.6,33.1,29.71,West,270,13.0,-999.0,98,-99.99,,,0.93,Acu-Link.com,2013-04-19 04:48:00,